Weather in Novobiryusinsky

Russia / Irkutsk Oblast     56°57′37″N   97°42′10″E
temp.,
°C
wind,
m/s
gust,
m/s
humid.,
%
clouds,
%
prec.,
mm/h
press.,
hPa
HPBL,
m
17 january, mon
mon1723:00−10sse2696100 1.5 1020151
02:00−14ssw119998 1.6 102011
05:00−19n11100100 0.1 10219
08:00−21ne11100100 0.1 10229
11:00−15ene1199100 0.0 102246
14:00−10ese129199 0.1 1020182
17:00−8ese1496100 0.2 1020164
20:00−10ese129887 0.4 102041
18 january, tue
tue1823:00−8se1396100 0.3 102191
02:00−6s1397100 0.4 102186
05:00−5s1298100 0.1 102163
08:00−7ssw1299100 0.1 102339
11:00−7sw1199100 0.0 102428
14:00−3w2793100 0.0 1025482
17:00−9ssw119875 0.0 102610
20:00−15sw11100100 0.0 102810
19 january, wed
wed1923:00−13s1197100 0.0 102810
02:00−12s1197100 0.0 102811
05:00−12s1197100 0.0 10289
08:00−13sw1197100 0.0 10289
11:00−16sw119966 0.0 10299
14:00−9wsw149032 0.0 1028225
17:00−14wsw009852 0.0 10289
20:00−20sse00100100 0.0 10309
20 january, thu
thu2023:00−22sse11100100 0.0 10309
02:00−23sse11100100 0.0 103011
05:00−24sse11100100 0.0 103111
08:00−24sse11100100 0.1 103111
11:00−19s12100100 0.1 103150
14:00−12ssw2496100 0.1 1030184
17:00−13sse229978 0.0 103030
20:00−17s1210093 0.0 103122
21 january, fri
fri2123:00−17s11100100 0.0 103223
02:00−18s1110094 0.0 103213
05:00−17s1199100 0.0 103119
08:00−18s1199100 0.0 103216
11:00−15ssw1294100 0.0 103261
14:00−11sw128894 0.0 1031162
17:00−13ssw119729 0.0 10319
20:00−19se1110084 0.0 10329